User: anonymous   Login
Location: Unspecified
(0.0000°N, 0.0000°E)
Time: 08:56:14
(UTC+00:00)
Language:

NOSS 3-4 (C) - Orbit

View from above orbital plane
View from above orbital plane
View from above satellite
View from above satellite

Ground track
Ground track

The orbit data is extracted from the following two-line orbital elements,

1 31708U 07027C   19017.17243056 0.00000000  00000-0  00000-0 0    04
2 31708  63.4010  47.1702 0237000  21.7917 338.2083 13.40773593    04
Epoch (UTC): 17 January 2019 04:08:18
Eccentricity: 0.0237000
inclination: 63.4010°
perigee height: 929 km
apogee height: 1284 km
right ascension of ascending node: 47.1702°
argument of perigee: 21.7917°
revolutions per day: 13.40773593
mean anomaly at epoch: 338.2083°
orbit number at epoch: 0

The dashed part of the orbit path shows where the satellite is in the earth's shadow,  

DLR